User: anonymous   Login
Location: Unspecified
(0.0000°N, 0.0000°E)
Time: 22:17:35
(UTC+00:00)
Language:

STARLINK-35378 - Orbit

View from above orbital plane
View from above orbital plane
View from above satellite
View from above satellite

Ground track
Ground track

The orbit is defined by the following mean orbital elements,

1 65794U          26145.56199073 +.00000000 +00000-0 +21971-3 0 00005
2 65794  97.4532   8.2878 0003019  64.2097 295.9441 15.05667406    01
Epoch (UTC): 25 May 2026 13:29:15
Eccentricity: 0.0003019
inclination: 97.4532°
perigee height: 547 km
apogee height: 552 km
right ascension of ascending node: 8.2878°
argument of perigee: 64.2097°
revolutions per day: 15.05667406
mean anomaly at epoch: 295.9441°

The dashed part of the orbit path shows where the satellite is in the earth's shadow,  

DLR